To NAV CANADA Home Page Login to a new session Search on AWWS site Feedback and Comments Disclaimer Vers la page française équivalente Tips FAQ What's new on the site To the Forecasts and Observations / NOTAM section To "File a Flight Plan" website Publications and other links Update of the User's profile FIC Telephone Numbers My Weather Data Folder Route Weather Data Regional Weather Data Local Weather Data To the Forecasts and Observations / NOTAM section
Request Generated 06/26/2017 at 03:42:36 UTC . Weather information available at that time is displayed.

METAR/TAF

ROBERVAL/QC    

METAR CYRJ 260300Z 27006KT 25SM SKC 09/03 A2983 RMK SLP106=
METAR CYRJ 260200Z 25005KT 25SM FEW065 10/04 A2982 RMK SC1 SC TR
SLP104=
METAR CYRJ 260100Z 29004KT 40SM FEW065 FEW220 12/06 A2981 RMK SC1CI1
SC TR SLP101=

*** REMARK        : Forecast period has ended; this was the last TAF issued
*** REMARQUE : La période de prévision est échue; ceci était le dernier TAF qui a été émis
TAF CYRJ 251938Z 2520/2602 32006KT P6SM SKC
RMK NXT FCST WILL BE ISSUED AT 261145Z=
Your time UTC time
Weather data provided by Environment Canada and NAV CANADA